Regional Weather Roundup
Issued by NWS

Home | Current Version | Previous Version | Text Only | Print | Product List | Glossary On
Versions: 1 2 3 4 5 6 7 8 9 10 11 12 13 14 15 16 17 18 19 20 21 22 23 24 25 26 27 28 29 30 31 32 33 34 35 36 37 38 39 40 41 42 43 44 45 46 47 48 49 50
000
ASUS43 KTOP 020359
RWRKS

WEATHER ROUNDUP FOR KANSAS
NATIONAL WEATHER SERVICE GOODLAND KS
1100 PM CDT MON SEP 01 2014

NOTE:  "FAIR" INDICATES FEW OR NO CLOUDS BELOW 12,000 FEET WITH NO
SIGNIFICANT WEATHER AND/OR OBSTRUCTIONS TO VISIBILITY.

KSZ001>006-013>018-027>032-041>047-020500-
NORTHWEST KANSAS

CITY           SKY/WX    TMP DP  RH WIND       PRES   REMARKS
GOODLAND       CLEAR     61  54  77 S9        30.01R
HAYS           CLEAR     66  59  77 CALM      29.93R
HILL CITY      CLEAR     63  58  83 CALM      29.93R
RUSSELL        CLEAR     65  63  93 E7        29.90R
$$

KSZ061>065-074>080-084>089-020500-
SOUTHWEST KANSAS

CITY           SKY/WX    TMP DP  RH WIND       PRES   REMARKS
DODGE CITY     CLEAR     65  62  90 CALM      29.95R
ELKHART          N/A     70  60  70 E8          N/A
GARDEN CITY    CLEAR     67  61  81 E6        29.96R
GREAT BEND     CLEAR     68  63  83 SE6       29.93R
LIBERAL        CLEAR     73  63  68 NE9       29.95S
$$

KSZ066>073-081>083-090>101-020500-
SOUTHEAST KANSAS

CITY           SKY/WX    TMP DP  RH WIND       PRES   REMARKS
CHANUTE        CLOUDY    74  71  91 E5        29.88R
COFFEYVILLE    CLOUDY    74  74 100 SW10      29.86R
HUTCHINSON     PTCLDY    73  66  78 E8        29.90S
MEDICINE LODGE   N/A     74  68  81 E7        29.87R
NEWTON         MOCLDY    70  64  83 E5        29.93S
PARSONS        CLOUDY    74  71  91 CALM      29.88R
WICHITA INTL   MOCLDY    75  68  78 E15       29.88R
WICHITA JABRA  MOCLDY    71  69  93 NE7       29.88R
WINFIELD       CLOUDY    71  68  90 E8        29.88R
$$

KSZ007>012-019>026-033>040-048>060-102>105-020500-
NORTHEAST KANSAS

CITY           SKY/WX    TMP DP  RH WIND       PRES   REMARKS
CONCORDIA      CLEAR     62  60  93 S6        29.89R
EMPORIA        CLOUDY    70  69  97 NE7       29.90S
LAWRENCE       CLOUDY   N/A N/A N/A S6        29.91R
MANHATTAN      PTCLDY    69  68  96 CALM      29.89R
OLATHE IND     LGT RAIN  71  70  96 S5        29.94R
OLATHE EXE     CLOUDY    70  70 100 SW12      29.95R
SALINA         MOCLDY    73  67  81 SE7       29.90R
TOPEKA BILLARD CLOUDY    72  71  97 CALM      29.89R
TOPEKA FORBES  CLOUDY    70  69  97 S6        29.91R
$$


USA.gov is the U.S. government's official web portal to all federal, state and local government web resources and services.